Hartford, CT

2:52 PM EDT on May 29, 2017 (GMT -0400)
Hartford-brainard

Weather History for KHFD - April, 2014

Change the Weather History Date:

Tuesday, April 29, 2014

  Actual Average Record
Temperature  
Mean Temperature 45 °F -  
Max Temperature 48 °F 64 °F 93 °F (1990)
Min Temperature 42 °F 41 °F 30 °F (1949)
Degree Days  
Heating Degree Days 20    
Moisture  
Dew Point 36 °F    
Average Humidity 67    
Maximum Humidity 79    
Minimum Humidity 56    
Precipitation  
Precipitation 0.02 in - - ()
Sea Level Pressure  
Sea Level Pressure 30.38 in    
Wind  
Wind Speed 8 mph (ENE)    
Max Wind Speed 13 mph    
Max Gust Speed -    
Visibility 10 miles    
Events Rain    
Averages and records for this station are not official NWS values.
T = Trace of Precipitation, MM = Missing Value Source: NWS Daily Summary

Daily Weather History Graph

Daily Weather History Graph

Search for Another Location

Airport or City:

Trip Planner

Search our weather history database for the weather conditions in past years. The results will help you decide how hot, cold, wet, or windy it might be!

Date:

Astronomy

Apr. 29, 2014 Rise Set
Actual Time 5:49 AM EDT 7:46 PM EDT
Civil Twilight 5:19 AM EDT 8:16 PM EDT
Nautical Twilight 4:43 AM EDT 8:53 PM EDT
Astronomical Twilight 4:03 AM EDT 9:33 PM EDT
Moon 6:06 AM EDT 8:24 PM EDT
Length of Visible Light 14h 57m
Length of Day
13h 56m
New Moon, 0% of the Moon is Illuminated
Apr 29
New Moon
May 6
First Quarter
May 14
Full
May 21
Last Quarter
May 28
New

Hourly Weather History & Observations

Time (EDT) Temp. Windchill Dew Point Humidity Pressure Visibility Wind Dir Wind Speed Gust Speed Precip Events Conditions
12:53 AM 48.9 °F - 37.0 °F 64% 30.21 in 10.0 mi Variable 3.5 mph - N/A   Overcast
1:53 AM 48.9 °F - 37.9 °F 66% 30.20 in 10.0 mi NE 4.6 mph - N/A   Overcast
2:53 AM 48.9 °F - 37.9 °F 66% 30.22 in 10.0 mi East 8.1 mph - N/A   Overcast
3:53 AM 46.9 °F - 37.0 °F 68% 30.26 in 10.0 mi ENE 8.1 mph - N/A   Overcast
4:53 AM 46.0 °F 40.2 °F 37.0 °F 71% 30.27 in 10.0 mi East 12.7 mph - N/A   Overcast
5:53 AM 45.0 °F 39.3 °F 35.1 °F 68% 30.28 in 10.0 mi ENE 11.5 mph - N/A   Overcast
6:53 AM 45.0 °F 39.7 °F 35.1 °F 68% 30.33 in 10.0 mi ENE 10.4 mph - N/A   Overcast
7:53 AM 45.0 °F 41.2 °F 35.1 °F 68% 30.35 in 10.0 mi East 6.9 mph - N/A   Overcast
9:53 AM 45.0 °F 40.1 °F 35.1 °F 68% 30.40 in 10.0 mi ENE 9.2 mph - N/A   Overcast
10:53 AM 45.0 °F 41.2 °F 33.1 °F 63% 30.41 in 10.0 mi ENE 6.9 mph - N/A   Overcast
11:31 AM 46.9 °F - 34.0 °F 61% 30.41 in 10.0 mi East 9.2 mph - N/A   Overcast
11:53 AM 46.9 °F - 34.0 °F 61% 30.41 in 10.0 mi ESE 10.4 mph - N/A   Overcast
12:29 PM 46.0 °F 40.6 °F 35.1 °F 66% 30.42 in 10.0 mi ENE 11.5 mph - N/A   Overcast
12:53 PM 46.9 °F - 35.1 °F 63% 30.43 in 10.0 mi ESE 9.2 mph - N/A   Overcast
1:53 PM 46.9 °F - 35.1 °F 63% 30.43 in 10.0 mi ENE 6.9 mph - N/A   Overcast
2:21 PM 48.0 °F - 35.1 °F 61% 30.41 in 10.0 mi ENE 8.1 mph - N/A   Overcast
2:53 PM 48.9 °F - 35.1 °F 59% 30.41 in 10.0 mi East 8.1 mph - N/A   Overcast
3:53 PM 48.9 °F - 34.0 °F 56% 30.41 in 10.0 mi East 10.4 mph - N/A   Mostly Cloudy
6:53 PM 46.0 °F 41.4 °F 35.1 °F 66% 30.44 in 10.0 mi ENE 9.2 mph - 0.00 in   Overcast
7:35 PM 45.0 °F 40.1 °F 36.0 °F 71% 30.46 in 7.0 mi East 9.2 mph - 0.01 in Rain Light Rain
7:53 PM 44.1 °F 38.1 °F 35.1 °F 71% 30.47 in 10.0 mi ENE 11.5 mph - 0.01 in Rain Light Rain
8:53 PM 43.0 °F 37.2 °F 36.0 °F 76% 30.46 in 9.0 mi East 10.4 mph - 0.00 in Rain Light Rain
9:53 PM 43.0 °F 38.8 °F 36.0 °F 76% 30.48 in 10.0 mi ENE 6.9 mph - 0.00 in   Overcast
10:53 PM 42.1 °F 38.4 °F 36.0 °F 79% 30.48 in 10.0 mi ENE 5.8 mph - 0.01 in   Overcast
11:53 PM 42.1 °F 39.2 °F 36.0 °F 79% 30.48 in 10.0 mi ENE 4.6 mph - 0.00 in   Overcast